Location: Unspecified
(0.0000°N, 0.0000°E)
Time: 09:32:37
(UTC+00:00)

Vanguard 2 Rocket - Pass Details

Date: 21 December 2018
Orbit: 556 x 3325 km, 32.9° (Epoch: 22 March)

Event Time Altitude Azimuth Distance (km) Brightness Sun altitude
Rises 16:29:29 0° 247° (WSW) 5,776 12.6 20.3°
Reaches altitude 10° 16:34:42 10° 231° (SW) 5,233 12.7 19.1°
Maximum altitude 16:45:37 20° 189° (S) 5,095 11.3 16.6°
Drops below altitude 10° 16:58:40 10° 148° (SSE) 6,284 11.1 13.6°
Sets 17:06:08 0° 133° (SE) 7,254 11.3 11.9°
